Regional Weather Roundup
Issued by NWS Sioux Falls, SD

Home | Current Version | Previous Version | Graphics & Text | Print | Product List | Glossary On
Versions: 1 2 3 4 5 6 7 8 9 10 11 12 13 14 15 16 17 18 19 20 21 22 23 24 25 26 27 28 29 30 31 32 33 34 35 36 37 38 39 40 41 42 43 44 45 46 47 48 49 50
000
ASUS43 KFSD 290602
RWRFSD

WEATHER ROUNDUP FOR SE SOUTH DAKOTA/SW MINNESOTA/NW IOWA
NATIONAL WEATHER SERVICE SIOUX FALLS SD
1200 AM CST SAT NOV 29 2014

NOTE: "FAIR" INDICATES FEW OR NO CLOUDS BELOW 12,000 FEET WITH NO
SIGNIFICANT WEATHER AND OR OBSTRUCTIONS TO VISIBILITY.


SDZ038>040-050-052>070-290700-
SOUTHEAST SOUTH DAKOTA

CITY           SKY/WX    TMP DP  RH WIND       PRES   REMARKS
CHAMBERLAIN    NOT AVBL
HURON          CLEAR     25  23  92 SE6       29.50F WCI  18
6HR MIN TEMP:  25; 6HR MAX TEMP:  30;

MADISON        FAIR      23  23 100 SE8       29.52F WCI  14
MITCHELL       PTCLDY    28  25  88 SE8       29.52F WCI  20
6HR MIN TEMP:  26; 6HR MAX TEMP:  31;

SIOUX FALLS    PTCLDY    22  19  89 NE7       29.54F WCI  13
6HR MIN TEMP:  21; 6HR MAX TEMP:  29;

WINNER         FAIR      48  25  40 SW9       29.48F
YANKTON        CLEAR     27  23  86 E7        29.54F WCI  19
$$

MNZ071-072-080-081-089-090-097-098-290700-
SOUTHWEST MINNESOTA

CITY           SKY/WX    TMP DP  RH WIND       PRES   REMARKS
FAIRMONT       PTCLDY    19  16  86 SE8       29.60F WCI   9
JACKSON        CLEAR     21  19  93 SE6       29.59F WCI  14
LUVERNE        PTCLDY    23  21  93 NE3       29.57S FOG
MARSHALL       PTCLDY    16  12  86 S12       29.57F WCI   3
6HR MIN TEMP:  16; 6HR MAX TEMP:  19;

MONTEVIDEO     CLEAR     18  18 100 S9        29.60F WCI   6
PIPESTONE      CLEAR     23  21  93 SE7       29.54F WCI  15
REDWOOD FALLS  PTCLDY    19  16  88 SE7       29.61F WCI  10
TRACY          PTCLDY    18  16  94 SE6       29.58F WCI  10
WINDOM         CLEAR     19  19 100 CALM      29.58F FOG
WORTHINGTON    PTCLDY    16  14  93 E3        29.57F
$$

IAZ001>003-012>014-020>022-031-032-NEZ013-014-SDZ071-290700-
NORTHWEST IOWA

CITY           SKY/WX    TMP DP  RH WIND       PRES   REMARKS
DENISON        PTCLDY    37  32  81 SW5       29.56F
ESTHERVILLE    CLEAR     18  16  92 E6        29.60F FOG     WCI  10
SIOUX CITY     PTCLDY    28  25  88 S3        29.57F
6HR MIN TEMP:  27; 6HR MAX TEMP:  39;

SPENCER        CLEAR     22  20  92 E7        29.58F FOG     WCI  13
6HR MIN TEMP:  21; 6HR MAX TEMP:  29;

$$

ABBREVIATIONS USED IN REMARKS
   TC - TEMPERATURE IN CELSIUS
  WCI - WIND CHILL INDEX
   HX - HEAT INDEX
  VSB - VISIBILITY



USA.gov is the U.S. government's official web portal to all federal, state and local government web resources and services.